Regional Weather Roundup
Issued by NWS Spokane, WA

Home | Current Version | Previous Version | Text Only | Print | Product List | Glossary On
Versions: 1 2 3 4 5 6 7 8 9 10 11 12 13 14 15 16 17 18 19 20 21 22 23 24 25 26 27 28 29 30 31 32 33 34 35 36 37 38 39 40 41 42 43 44 45 46 47 48 49 50
000
NZUS01 KOTX 110625
RWROTX

Eastern Washington/Northern Idaho Roundup
National Weather Service, Spokane WA
1000 PM PST SAT DEC 10 2016

Note: "fair" indicated few or no clouds below 12,000 feet with no
significant weather and/or obstructions to visibility.

...Northeast Washington and Northern Idaho Panhandle...

CITY           SKY/WX    TMP DP  RH WIND       PRES   REMARKS
Spokane Intl   LGT SNOW  22  20  92 E3        29.89S VSB 3/4
Spokane Downto LGT SNOW  25  23  92 CALM      29.92F FOG
Coeur d Alene  LGT SNOW  21  19  93 NE7       29.91S FOG     WCI  13
Deer Park      LGT SNOW  22  19  89 CALM      29.91S VSB 1
Sandpoint      MOCLDY    23  21  93 CALM      29.93F
Bonners Ferry  FLURRIES  19  18  93 CALM      29.93S

...Southeast Washington and southern Idaho Panhandle...

CITY           SKY/WX    TMP DP  RH WIND       PRES   REMARKS
Walla Walla    CLOUDY    25  21  85 CALM      29.96R
Pullman/Moscow LGT SNOW  29  26  89 E9        29.92S FOG     WCI  20
Lewiston       MOCLDY    24  20  84 CALM      29.98R
Lowell           N/A     32  29  88 CALM      30.01R
Grangeville    CLOUDY    23  23 100 E3        29.90S

...Columbia Basin...

CITY           SKY/WX    TMP DP  RH WIND       PRES   REMARKS
Ephrata        CLOUDY    23  19  85 N5        29.95S FOG     WCI  17
Moses Lake     CLOUDY    24  20  84 NW5       29.97R WCI  18
Pasco          MOCLDY    24  23  96 W3        30.03R
Richland       MOCLDY    22  21  96 W3        30.03R
Hermiston      CLOUDY    20  16  84 N5        29.99R WCI  13
Pendleton      CLOUDY    31  24  75 S8        29.93S WCI  23

...East Slopes Cascades...

CITY           SKY/WX    TMP DP  RH WIND       PRES   REMARKS
The Dalles     CLOUDY    26  21  81 SE3       30.03R
Yakima         CLOUDY    22  18  85 W5        29.98S FOG     WCI  16
Ellensburg     CLOUDY    21  17  84 CALM      29.93S FOG
Stampede Pass  CLOUDY    20  19  96 NE5       29.78R FOG     WCI  13
Wenatchee      CLOUDY    23  19  85 CALM      29.96F
Omak           CLOUDY    22  18  85 S6        29.96S WCI  14
Chelan           N/A     21  16  79 MISG        N/A
Sunnyside        N/A     20  19  96 W5        30.01S FOG     WCI  14

...Southern British Columbia...

CITY           SKY/WX    TMP DP  RH WIND       PRES   REMARKS
Penticton      FLURRIES  27  19  74 S15G22    29.93S WCI  15
Cranbrook      MOCLDY     7   3  85 SW2       29.92S
Osoyoos          N/A     25  21  86 S9          N/A  WCI  15
Creston          N/A     19  18  93 E1          N/A

...Western Montana...

CITY           SKY/WX    TMP DP  RH WIND       PRES   REMARKS
Kalispell      LGT SNOW  15  11  83 CALM      29.91S FOG
Libby            N/A     12   9  85 CALM      29.92S
Missoula       CLOUDY    21  18  88 S5        29.90F WCI  15

...Neighboring Cities...

CITY           SKY/WX    TMP DP  RH WIND       PRES   REMARKS
Seattle        LGT RAIN  42  38  85 S17G26    29.88R
Portland       MOCLDY    43  40  89 S13       30.00S
Boise          FOG       31  30  96 CALM      29.98R VSB 1/4
Great Falls    CLOUDY    -3  -6  87 SE7       29.82R WCI -16
Calgary        MOCLDY   -11 -17  77 N7        29.85R FOG     WCI -26



USA.gov is the U.S. government's official web portal to all federal, state and local government web resources and services.